Weather History for Troy, MI

Change the Weather History Date:

Monday, July 29, 2013

  Actual Average (KDET) Record (KDET)
Temperature  
Mean Temperature 64 °F -  
Max Temperature 71 °F 82 °F 94 °F (1988)
Min Temperature 58 °F 64 °F 54 °F (1952)
Growing Degree Days 14 (Base 50)    
Moisture  
Dew Point 53 °F    
Average Humidity 68    
Maximum Humidity 82    
Minimum Humidity 51    
Precipitation  
Precipitation 0.00 in - - ()
Sea Level Pressure  
Sea Level Pressure 30.10 in    
Wind  
Wind Speed 6 mph (WSW)    
Max Wind Speed 12 mph    
Max Gust Speed 20 mph    
Visibility 10 miles    
Events Rain    
Averages and records for this station are not official NWS values.
T = Trace of Precipitation, MM = Missing Value Source: NWS Daily Summary

Daily Weather History Graph

Daily Weather History Graph

Search for Another Location

Airport:

Trip Planner

Search our weather history database for the weather conditions in past years. The results will help you decide how hot, cold, wet, or windy it might be!

Date:

Astronomy

Jul. 29, 2013 Rise Set
Actual Time 6:21 AM EDT 8:55 PM EDT
Civil Twilight 5:49 AM EDT 9:27 PM EDT
Nautical Twilight 5:09 AM EDT 10:07 PM EDT
Astronomical Twilight 4:23 AM EDT 10:53 PM EDT
Moon 12:07 AM EDT (7/29) 2:14 PM EDT (7/29)
Length of Visible Light 15h 38m
Length of Day
14h 33m
Waning Gibbous, 51% of the Moon is Illuminated
Jul 29
Waning Gibbous
Jul 29
Last Quarter
Aug 6
New
Aug 14
First Quarter
Aug 20
Full

Hourly Weather History & Observations

Time (EDT) Temp. Dew Point Humidity Pressure Visibility Wind Dir Wind Speed Gust Speed Precip Events Conditions
12:14 AM 59.9 °F 53.6 °F 80% 30.01 in 10.0 mi SW 5.8 mph - N/A   Scattered Clouds
12:35 AM 60.1 °F 53.6 °F 79% 30.02 in 10.0 mi SW 4.6 mph - N/A   Overcast
12:55 AM 59.9 °F 53.6 °F 80% 30.02 in 10.0 mi SW 4.6 mph - N/A   Mostly Cloudy
1:14 AM 59.9 °F 53.6 °F 80% 30.02 in 10.0 mi SW 4.6 mph - N/A   Scattered Clouds
1:35 AM 59.9 °F 53.1 °F 78% 30.02 in 10.0 mi WSW 5.8 mph - N/A   Mostly Cloudy
1:55 AM 59.5 °F 52.5 °F 78% 30.02 in 10.0 mi SW 4.6 mph - N/A   Mostly Cloudy
2:14 AM 59.5 °F 52.0 °F 76% 30.02 in 10.0 mi SW 5.8 mph - N/A   Mostly Cloudy
2:35 AM 59.2 °F 52.3 °F 78% 30.02 in 10.0 mi SSW 6.9 mph - N/A Rain Light Rain
2:55 AM 59.0 °F 52.5 °F 79% 30.01 in 10.0 mi SW 4.6 mph - N/A Rain Rain
3:14 AM 58.8 °F 52.5 °F 80% 30.01 in 10.0 mi SW 4.6 mph - N/A   Scattered Clouds
3:35 AM 58.8 °F 52.7 °F 80% 30.01 in 10.0 mi SSW 3.5 mph - N/A   Light Drizzle
3:55 AM 58.6 °F 53.1 °F 82% 30.01 in 10.0 mi SSW 4.6 mph - N/A   Mostly Cloudy
4:15 AM 58.8 °F 52.9 °F 81% 30.01 in 10.0 mi SSW 5.8 mph - N/A   Overcast
4:35 AM 58.8 °F 52.7 °F 80% 30.02 in 10.0 mi SSW 5.8 mph - N/A   Overcast
4:54 AM 59.0 °F 52.5 °F 79% 30.01 in 10.0 mi SSW 5.8 mph - N/A   Overcast
5:15 AM 59.4 °F 52.3 °F 78% 30.02 in 10.0 mi SW 5.8 mph - N/A   Overcast
5:34 AM 59.2 °F 52.2 °F 78% 30.02 in 10.0 mi WSW 6.9 mph - N/A   Overcast
5:55 AM 59.2 °F 52.2 °F 78% 30.02 in 10.0 mi WSW 6.9 mph - N/A   Overcast
6:15 AM 59.2 °F 52.2 °F 78% 30.03 in 10.0 mi SW 8.1 mph - N/A   Overcast
6:34 AM 59.0 °F 52.7 °F 80% 30.03 in 10.0 mi SW 6.9 mph - N/A Rain Light Rain
6:55 AM 59.2 °F 52.7 °F 79% 30.04 in 10.0 mi SW 6.9 mph - N/A   Overcast
7:15 AM 59.4 °F 52.5 °F 78% 30.03 in 10.0 mi SW 6.9 mph - N/A   Overcast
7:35 AM 59.9 °F 52.7 °F 77% 30.04 in 10.0 mi SW 6.9 mph - N/A   Overcast
7:55 AM 60.3 °F 52.7 °F 76% 30.05 in 10.0 mi SW 6.9 mph - N/A   Overcast
8:15 AM 60.6 °F 52.9 °F 76% 30.05 in 10.0 mi WSW 5.8 mph - N/A   Overcast
8:35 AM 61.9 °F 53.6 °F 74% 30.05 in 10.0 mi WSW 8.1 mph - N/A   Overcast
8:54 AM 62.6 °F 53.6 °F 72% 30.06 in 10.0 mi WSW 9.2 mph - N/A   Overcast
9:15 AM 62.8 °F 53.4 °F 71% 30.07 in 10.0 mi West 8.1 mph - N/A   Overcast
9:35 AM 63.1 °F 53.6 °F 71% 30.07 in 10.0 mi West 5.8 mph - N/A   Overcast
9:55 AM 63.9 °F 53.6 °F 69% 30.08 in 10.0 mi WNW 5.8 mph - N/A   Overcast
10:15 AM 63.7 °F 53.2 °F 69% 30.08 in 10.0 mi West 9.2 mph - N/A   Overcast
10:34 AM 63.9 °F 53.6 °F 69% 30.09 in 10.0 mi WSW 8.1 mph - N/A   Overcast
10:55 AM 64.4 °F 53.2 °F 67% 30.09 in 10.0 mi West 9.2 mph - N/A   Overcast
11:15 AM 64.8 °F 53.6 °F 67% 30.10 in 10.0 mi West 9.2 mph - N/A   Overcast
11:34 AM 66.0 °F 53.8 °F 65% 30.10 in 10.0 mi WNW 9.2 mph - N/A   Overcast
11:55 AM 66.6 °F 52.5 °F 61% 30.10 in 10.0 mi West 10.4 mph - N/A   Overcast
12:15 PM 66.7 °F 52.3 °F 60% 30.10 in 10.0 mi West 6.9 mph - N/A   Overcast
12:34 PM 66.4 °F 52.7 °F 61% 30.11 in 10.0 mi West 8.1 mph 16.1 mph N/A   Overcast
12:55 PM 65.7 °F 53.1 °F 64% 30.12 in 10.0 mi West 8.1 mph 18.4 mph N/A   Overcast
1:14 PM 66.4 °F 52.5 °F 61% 30.12 in 10.0 mi WNW 9.2 mph 17.3 mph N/A   Overcast
1:35 PM 66.7 °F 52.0 °F 59% 30.12 in 10.0 mi West 8.1 mph - N/A   Overcast
1:55 PM 67.3 °F 52.0 °F 58% 30.13 in 10.0 mi West 9.2 mph - N/A   Overcast
2:14 PM 68.0 °F 53.1 °F 59% 30.13 in 10.0 mi NW 9.2 mph - N/A   Overcast
2:35 PM 68.2 °F 52.7 °F 58% 30.13 in 10.0 mi WNW 11.5 mph 19.6 mph N/A   Overcast
2:54 PM 68.0 °F 53.2 °F 59% 30.13 in 10.0 mi WNW 8.1 mph - N/A   Overcast
3:15 PM 68.9 °F 53.1 °F 57% 30.13 in 10.0 mi WNW 9.2 mph - N/A   Overcast
3:35 PM 68.9 °F 53.1 °F 57% 30.14 in 10.0 mi West 5.8 mph - N/A   Overcast
3:54 PM 68.7 °F 52.9 °F 57% 30.14 in 10.0 mi WNW 6.9 mph - N/A   Overcast
4:15 PM 68.5 °F 53.2 °F 58% 30.15 in 10.0 mi WNW 10.4 mph - N/A   Overcast
4:34 PM 68.4 °F 54.0 °F 60% 30.15 in 10.0 mi West 9.2 mph - N/A   Overcast
4:55 PM 68.9 °F 52.0 °F 55% 30.15 in 10.0 mi West 8.1 mph - N/A   Overcast
5:15 PM 70.3 °F 52.5 °F 53% 30.15 in 10.0 mi West 6.9 mph - N/A   Scattered Clouds
5:34 PM 70.7 °F 52.9 °F 53% 30.15 in 10.0 mi West 9.2 mph 16.1 mph N/A   Scattered Clouds
5:55 PM 70.3 °F 52.2 °F 52% 30.15 in 10.0 mi NW 5.8 mph - N/A   Scattered Clouds
6:15 PM 70.9 °F 52.0 °F 51% 30.16 in 10.0 mi West 8.1 mph - N/A   Clear
6:35 PM 71.1 °F 52.7 °F 52% 30.16 in 10.0 mi West 8.1 mph - N/A   Scattered Clouds
6:55 PM 69.8 °F 53.1 °F 55% 30.17 in 10.0 mi West 6.9 mph - N/A   Mostly Cloudy
7:14 PM 70.3 °F 53.2 °F 55% 30.17 in 10.0 mi WNW 6.9 mph - N/A   Scattered Clouds
7:35 PM 70.0 °F 53.4 °F 56% 30.17 in 10.0 mi Calm Calm - N/A   Scattered Clouds
7:55 PM 70.0 °F 53.4 °F 56% 30.17 in 10.0 mi WNW 3.5 mph - N/A   Overcast
8:14 PM 69.8 °F 53.6 °F 56% 30.18 in 10.0 mi West 6.9 mph - N/A   Mostly Cloudy
8:35 PM 68.5 °F 54.0 °F 60% 30.18 in 10.0 mi WSW 5.8 mph - N/A   Scattered Clouds
8:54 PM 68.0 °F 54.0 °F 61% 30.18 in 10.0 mi WSW 4.6 mph - N/A   Clear
9:15 PM 67.1 °F 54.3 °F 63% 30.19 in 10.0 mi Calm Calm - N/A   Clear
9:35 PM 66.4 °F 54.3 °F 65% 30.20 in 10.0 mi WSW 3.5 mph - N/A   Clear
9:54 PM 65.8 °F 54.5 °F 67% 30.20 in 10.0 mi WSW 3.5 mph - N/A   Clear
10:15 PM 64.9 °F 54.5 °F 69% 30.20 in 10.0 mi Calm Calm - N/A   Clear
10:35 PM 64.6 °F 54.7 °F 70% 30.20 in 10.0 mi WSW 3.5 mph - N/A   Clear
10:54 PM 63.9 °F 54.9 °F 72% 30.21 in 10.0 mi WSW 3.5 mph - N/A   Clear
11:15 PM 63.1 °F 54.9 °F 74% 30.21 in 10.0 mi WSW 4.6 mph - N/A   Clear
11:35 PM 63.3 °F 54.7 °F 73% 30.21 in 10.0 mi WSW 4.6 mph - N/A   Clear
11:55 PM 62.1 °F 54.9 °F 77% 30.21 in 10.0 mi WSW 5.8 mph - N/A   Clear